Time,TemperatureF,DewpointF,PressureIn,WindDirection,WindDirectionDegrees,WindSpeedMPH,WindSpeedGustMPH,Humidity,HourlyPrecipIn,Conditions,Clouds,dailyrainin,SoftwareType,DateUTC
2013-03-16 00:07:00,35.9,35.0,29.88,East,91,2.0,-999.0,96,-99.99,,,0.12,weatherlink.com 1.10,2013-03-16 04:07:00,
2013-03-16 00:22:00,35.7,35.0,29.87,East,98,0.0,-999.0,96,-99.99,,,0.13,weatherlink.com 1.10,2013-03-16 04:22:00,
2013-03-16 00:37:00,35.5,35.0,29.86,East,98,1.0,-999.0,96,-99.99,,,0.13,weatherlink.com 1.10,2013-03-16 04:37:00,
2013-03-16 00:52:00,35.4,35.0,29.86,ENE,67,4.0,-999.0,97,-99.99,,,0.13,weatherlink.com 1.10,2013-03-16 04:52:00,
2013-03-16 01:07:00,34.9,34.0,29.86,East,80,1.0,-999.0,97,-99.99,,,0.14,weatherlink.com 1.10,2013-03-16 05:07:00,
2013-03-16 01:22:00,34.5,34.0,29.86,East,84,2.0,-999.0,97,-99.99,,,0.15,weatherlink.com 1.10,2013-03-16 05:22:00,
2013-03-16 01:37:00,34.4,34.0,29.85,East,82,2.0,-999.0,97,-99.99,,,0.15,weatherlink.com 1.10,2013-03-16 05:37:00,
2013-03-16 01:52:00,34.3,34.0,29.85,East,85,2.0,-999.0,97,-99.99,,,0.15,weatherlink.com 1.10,2013-03-16 05:52:00,
2013-03-16 02:07:00,34.1,33.0,29.84,ENE,75,1.0,-999.0,97,-99.99,,,0.15,weatherlink.com 1.10,2013-03-16 06:07:00,
2013-03-16 02:22:00,34.0,33.0,29.84,East,86,1.0,-999.0,97,-99.99,,,0.15,weatherlink.com 1.10,2013-03-16 06:22:00,
2013-03-16 02:37:00,33.9,33.0,29.84,East,80,2.0,-999.0,97,-99.99,,,0.15,weatherlink.com 1.10,2013-03-16 06:37:00,
2013-03-16 02:52:00,34.3,34.0,29.83,East,79,5.0,-999.0,97,-99.99,,,0.15,weatherlink.com 1.10,2013-03-16 06:52:00,
2013-03-16 03:07:00,33.6,33.0,29.82,NE,51,5.0,-999.0,97,-99.99,,,0.15,weatherlink.com 1.10,2013-03-16 07:07:00,
2013-03-16 03:22:00,33.1,32.0,29.81,NNE,13,3.0,-999.0,97,-99.99,,,0.00,weatherlink.com 1.10,2013-03-16 07:22:00,
2013-03-16 03:37:00,32.7,32.0,29.81,NNE,20,5.0,-999.0,97,-99.99,,,0.00,weatherlink.com 1.10,2013-03-16 07:37:00,
2013-03-16 03:58:00,32.1,31.0,29.80,NNE,20,11.0,-999.0,97,-99.99,,,0.00,weatherlink.com 1.10,2013-03-16 07:58:00,
2013-03-16 04:07:00,31.8,31.0,29.80,ENE,66,8.0,-999.0,97,-99.99,,,0.00,weatherlink.com 1.10,2013-03-16 08:07:00,
2013-03-16 04:22:00,31.6,31.0,29.82,ENE,72,8.0,-999.0,97,-99.99,,,0.00,weatherlink.com 1.10,2013-03-16 08:22:00,
2013-03-16 04:37:00,31.4,31.0,29.81,East,84,6.0,-999.0,97,-99.99,,,0.00,weatherlink.com 1.10,2013-03-16 08:37:00,
2013-03-16 04:52:00,31.0,30.0,29.80,ENE,59,5.0,-999.0,97,-99.99,,,0.00,weatherlink.com 1.10,2013-03-16 08:52:00,
2013-03-16 05:07:00,31.0,30.0,29.81,North,11,7.0,-999.0,97,-99.99,,,0.00,weatherlink.com 1.10,2013-03-16 09:07:00,
2013-03-16 05:22:00,30.8,30.0,29.80,NE,51,2.0,-999.0,97,-99.99,,,0.00,weatherlink.com 1.10,2013-03-16 09:22:00,
2013-03-16 05:37:00,30.7,30.0,29.79,NE,56,6.0,-999.0,97,-99.99,,,0.00,weatherlink.com 1.10,2013-03-16 09:37:00,
2013-03-16 05:52:00,-999.0,-99.9,29.79,North,-999,-999.0,-999.0,-999,-99.99,,,0.00,weatherlink.com 1.10,2013-03-16 09:52:00,
2013-03-16 06:07:00,-999.0,-99.9,29.79,North,-999,-999.0,-999.0,-999,-99.99,,,0.00,weatherlink.com 1.10,2013-03-16 10:07:00,
2013-03-16 06:22:00,-999.0,-99.9,29.78,North,-999,-999.0,-999.0,-999,-99.99,,,0.00,weatherlink.com 1.10,2013-03-16 10:22:00,
2013-03-16 06:37:00,-999.0,-99.9,29.77,North,-999,-999.0,-999.0,-999,-99.99,,,0.00,weatherlink.com 1.10,2013-03-16 10:37:00,
2013-03-16 06:52:00,-999.0,-99.9,29.77,North,-999,-999.0,-999.0,-999,-99.99,,,0.00,weatherlink.com 1.10,2013-03-16 10:52:00,
2013-03-16 07:07:00,-999.0,-99.9,29.79,North,-999,-999.0,-999.0,-999,-99.99,,,0.00,weatherlink.com 1.10,2013-03-16 11:07:00,
2013-03-16 07:22:00,-999.0,-99.9,29.77,North,-999,-999.0,-999.0,-999,-99.99,,,0.00,weatherlink.com 1.10,2013-03-16 11:22:00,
2013-03-16 07:37:00,-999.0,-99.9,29.79,North,-999,-999.0,-999.0,-999,-99.99,,,0.00,weatherlink.com 1.10,2013-03-16 11:37:00,
2013-03-16 07:52:00,-999.0,-99.9,29.78,North,-999,-999.0,-999.0,-999,-99.99,,,0.00,weatherlink.com 1.10,2013-03-16 11:52:00,
2013-03-16 08:07:00,-999.0,-99.9,29.79,North,-999,-999.0,-999.0,-999,-99.99,,,0.00,weatherlink.com 1.10,2013-03-16 12:07:00,
2013-03-16 08:22:00,-999.0,-99.9,29.79,North,-999,-999.0,-999.0,-999,-99.99,,,0.00,weatherlink.com 1.10,2013-03-16 12:22:00,
2013-03-16 08:37:00,-999.0,-99.9,29.79,North,-999,-999.0,-999.0,-999,-99.99,,,0.00,weatherlink.com 1.10,2013-03-16 12:37:00,
2013-03-16 08:52:00,-999.0,-99.9,29.79,North,-999,-999.0,-999.0,-999,-99.99,,,0.00,weatherlink.com 1.10,2013-03-16 12:52:00,
2013-03-16 09:07:00,30.2,29.0,29.79,East,91,7.0,-999.0,96,-99.99,,,0.00,weatherlink.com 1.10,2013-03-16 13:07:00,
2013-03-16 09:22:00,30.3,29.0,29.79,ENE,63,7.0,-999.0,96,-99.99,,,0.00,weatherlink.com 1.10,2013-03-16 13:22:00,
2013-03-16 09:37:00,30.4,29.0,29.78,ENE,70,13.0,-999.0,96,-99.99,,,0.00,weatherlink.com 1.10,2013-03-16 13:37:00,
2013-03-16 09:52:00,30.6,30.0,29.79,East,93,5.0,-999.0,96,-99.99,,,0.00,weatherlink.com 1.10,2013-03-16 13:52:00,
2013-03-16 10:07:00,30.6,29.0,29.79,East,93,2.0,-999.0,95,-99.99,,,0.00,weatherlink.com 1.10,2013-03-16 14:07:00,
2013-03-16 10:22:00,30.4,29.0,29.78,ENE,61,4.0,-999.0,95,-99.99,,,0.00,weatherlink.com 1.10,2013-03-16 14:22:00,
2013-03-16 10:37:00,30.7,30.0,29.79,NW,314,5.0,-999.0,95,-99.99,,,0.00,weatherlink.com 1.10,2013-03-16 14:37:00,
2013-03-16 10:52:00,30.6,29.0,29.79,ENE,65,4.0,-999.0,94,-99.99,,,0.00,weatherlink.com 1.10,2013-03-16 14:52:00,
2013-03-16 11:07:00,30.9,29.0,29.80,ENE,61,3.0,-999.0,94,-99.99,,,0.00,weatherlink.com 1.10,2013-03-16 15:07:00,
2013-03-16 11:22:00,31.0,30.0,29.80,NNW,346,3.0,-999.0,94,-99.99,,,0.00,weatherlink.com 1.10,2013-03-16 15:22:00,
2013-03-16 11:37:00,30.9,29.0,29.80,NE,34,4.0,-999.0,93,-99.99,,,0.00,weatherlink.com 1.10,2013-03-16 15:37:00,
2013-03-16 11:52:00,30.9,29.0,29.81,NNE,16,3.0,-999.0,92,-99.99,,,0.00,weatherlink.com 1.10,2013-03-16 15:52:00,
2013-03-16 12:07:00,30.9,29.0,29.82,NE,36,5.0,-999.0,92,-99.99,,,0.00,weatherlink.com 1.10,2013-03-16 16:07:00,
2013-03-16 12:22:00,30.9,29.0,29.84,NNE,31,5.0,-999.0,93,-99.99,,,0.00,weatherlink.com 1.10,2013-03-16 16:22:00,
2013-03-16 12:37:00,30.9,29.0,29.84,NNE,29,4.0,-999.0,93,-99.99,,,0.00,weatherlink.com 1.10,2013-03-16 16:37:00,
2013-03-16 12:52:00,31.1,29.0,29.85,NNW,333,3.0,-999.0,93,-99.99,,,0.00,weatherlink.com 1.10,2013-03-16 16:52:00,
2013-03-16 13:07:00,31.0,29.0,29.86,North,359,4.0,-999.0,92,-99.99,,,0.00,weatherlink.com 1.10,2013-03-16 17:07:00,
2013-03-16 13:22:00,31.3,29.0,29.87,NNW,327,6.0,-999.0,92,-99.99,,,0.00,weatherlink.com 1.10,2013-03-16 17:22:00,
2013-03-16 13:37:00,31.2,29.0,29.88,North,4,3.0,-999.0,91,-99.99,,,0.00,weatherlink.com 1.10,2013-03-16 17:37:00,
2013-03-16 13:52:00,31.3,29.0,29.88,North,4,5.0,-999.0,91,-99.99,,,0.00,weatherlink.com 1.10,2013-03-16 17:52:00,
2013-03-16 14:07:00,31.2,29.0,29.89,NNW,348,5.0,-999.0,90,-99.99,,,0.00,weatherlink.com 1.10,2013-03-16 18:07:00,
2013-03-16 14:22:00,31.5,30.0,29.89,NNW,333,2.0,-999.0,92,-99.99,,,0.00,weatherlink.com 1.10,2013-03-16 18:22:00,
2013-03-16 14:37:00,31.5,29.0,29.90,NNW,330,1.0,-999.0,91,-99.99,,,0.00,weatherlink.com 1.10,2013-03-16 18:37:00,
2013-03-16 14:52:00,31.9,30.0,29.91,NNE,27,7.0,-999.0,91,-99.99,,,0.00,weatherlink.com 1.10,2013-03-16 18:52:00,
2013-03-16 15:07:00,32.0,30.0,29.91,NNW,340,1.0,-999.0,91,-99.99,,,0.00,weatherlink.com 1.10,2013-03-16 19:07:00,
2013-03-16 15:22:00,32.2,30.0,29.91,NNE,32,0.0,-999.0,90,-99.99,,,0.00,weatherlink.com 1.10,2013-03-16 19:22:00,
2013-03-16 15:37:00,32.1,30.0,29.92,NNW,330,1.0,-999.0,90,-99.99,,,0.00,weatherlink.com 1.10,2013-03-16 19:37:00,
2013-03-16 15:52:00,32.4,30.0,29.93,NW,311,3.0,-999.0,90,-99.99,,,0.00,weatherlink.com 1.10,2013-03-16 19:52:00,
2013-03-16 16:07:00,32.2,30.0,29.93,NNW,332,1.0,-999.0,90,-99.99,,,0.00,weatherlink.com 1.10,2013-03-16 20:07:00,
2013-03-16 16:22:00,32.4,30.0,29.94,North,356,1.0,-999.0,90,-99.99,,,0.00,weatherlink.com 1.10,2013-03-16 20:22:00,
2013-03-16 16:37:00,32.4,30.0,29.94,NW,325,4.0,-999.0,89,-99.99,,,0.00,weatherlink.com 1.10,2013-03-16 20:37:00,
2013-03-16 16:52:00,32.5,30.0,29.95,NW,304,5.0,-999.0,89,-99.99,,,0.00,weatherlink.com 1.10,2013-03-16 20:52:00,
2013-03-16 17:07:00,32.4,30.0,29.96,North,354,2.0,-999.0,89,-99.99,,,0.00,weatherlink.com 1.10,2013-03-16 21:07:00,
2013-03-16 17:22:00,32.7,30.0,29.96,WNW,301,1.0,-999.0,88,-99.99,,,0.00,weatherlink.com 1.10,2013-03-16 21:22:00,
2013-03-16 17:37:00,32.8,29.0,29.96,WNW,293,0.0,-999.0,87,-99.99,,,0.00,weatherlink.com 1.10,2013-03-16 21:37:00,
2013-03-16 17:52:00,32.8,29.0,29.97,West,267,4.0,-999.0,87,-99.99,,,0.00,weatherlink.com 1.10,2013-03-16 21:52:00,
2013-03-16 18:07:00,32.8,30.0,29.98,NW,304,1.0,-999.0,88,-99.99,,,0.00,weatherlink.com 1.10,2013-03-16 22:07:00,
2013-03-16 18:22:00,32.8,29.0,29.99,WNW,297,2.0,-999.0,87,-99.99,,,0.00,weatherlink.com 1.10,2013-03-16 22:22:00,
2013-03-16 18:37:00,32.5,29.0,29.99,WNW,285,1.0,-999.0,88,-99.99,,,0.00,weatherlink.com 1.10,2013-03-16 22:37:00,
2013-03-16 18:52:00,32.4,30.0,30.00,WNW,297,2.0,-999.0,90,-99.99,,,0.00,weatherlink.com 1.10,2013-03-16 22:52:00,
2013-03-16 19:22:00,32.3,30.0,30.01,WNW,288,4.0,-999.0,89,-99.99,,,0.00,weatherlink.com 1.10,2013-03-16 23:22:00,
2013-03-16 19:37:00,32.2,29.0,30.02,WNW,295,3.0,-999.0,89,-99.99,,,0.00,weatherlink.com 1.10,2013-03-16 23:37:00,
2013-03-16 19:52:00,32.1,29.0,30.02,WNW,291,3.0,-999.0,88,-99.99,,,0.00,weatherlink.com 1.10,2013-03-16 23:52:00,
2013-03-16 20:07:00,32.1,29.0,30.02,WNW,295,1.0,-999.0,89,-99.99,,,0.00,weatherlink.com 1.10,2013-03-17 00:07:00,
2013-03-16 20:22:00,32.0,29.0,30.02,WSW,257,2.0,-999.0,89,-99.99,,,0.00,weatherlink.com 1.10,2013-03-17 00:22:00,
2013-03-16 20:37:00,32.0,29.0,30.03,West,280,2.0,-999.0,89,-99.99,,,0.00,weatherlink.com 1.10,2013-03-17 00:37:00,
2013-03-16 20:52:00,32.0,29.0,30.04,WNW,293,3.0,-999.0,88,-99.99,,,0.00,weatherlink.com 1.10,2013-03-17 00:52:00,
2013-03-16 21:07:00,31.9,28.0,30.04,NNW,347,6.0,-999.0,85,-99.99,,,0.00,weatherlink.com 1.10,2013-03-17 01:07:00,
2013-03-16 21:22:00,31.7,27.0,30.05,WNW,300,6.0,-999.0,84,-99.99,,,0.00,weatherlink.com 1.10,2013-03-17 01:22:00,
2013-03-16 21:37:00,31.6,27.0,30.05,WNW,302,2.0,-999.0,84,-99.99,,,0.00,weatherlink.com 1.10,2013-03-17 01:37:00,
2013-03-16 21:52:00,31.5,27.0,30.06,WNW,300,3.0,-999.0,84,-99.99,,,0.00,weatherlink.com 1.10,2013-03-17 01:52:00,
2013-03-16 22:07:00,31.3,27.0,30.06,NW,325,4.0,-999.0,83,-99.99,,,0.00,weatherlink.com 1.10,2013-03-17 02:07:00,
2013-03-16 22:22:00,31.3,26.0,30.06,WNW,300,5.0,-999.0,81,-99.99,,,0.00,weatherlink.com 1.10,2013-03-17 02:22:00,
2013-03-16 22:37:00,31.2,26.0,30.07,WNW,297,4.0,-999.0,82,-99.99,,,0.00,weatherlink.com 1.10,2013-03-17 02:37:00,
2013-03-16 22:52:00,31.2,26.0,30.07,NNW,327,5.0,-999.0,81,-99.99,,,0.00,weatherlink.com 1.10,2013-03-17 02:52:00,
2013-03-16 23:07:00,31.2,26.0,30.07,NW,316,2.0,-999.0,80,-99.99,,,0.00,weatherlink.com 1.10,2013-03-17 03:07:00,
2013-03-16 23:22:00,31.1,26.0,30.08,NW,315,5.0,-999.0,80,-99.99,,,0.00,weatherlink.com 1.10,2013-03-17 03:22:00,
2013-03-16 23:37:00,31.0,26.0,30.08,NW,315,1.0,-999.0,81,-99.99,,,0.00,weatherlink.com 1.10,2013-03-17 03:37:00,
2013-03-16 23:52:00,31.0,26.0,30.08,NW,313,2.0,-999.0,81,-99.99,,,0.00,weatherlink.com 1.10,2013-03-17 03:52:00,